TimeMDT,TemperatureF,Dew PointF,Humidity,Sea Level PressureIn,VisibilityMPH,Wind Direction,Wind SpeedMPH,Gust SpeedMPH,PrecipitationIn,Events,Conditions,WindDirDegrees,DateUTC
12:15 AM,48.2,37.4,66,29.86,10.0,SSE,6.9,-,N/A,,Clear,150,2012-10-16 06:15:00
12:56 AM,55.4,35.6,47,29.85,10.0,West,6.9,-,N/A,,Clear,260,2012-10-16 06:56:00
1:15 AM,57.2,35.6,44,29.84,10.0,West,8.1,-,N/A,,Clear,270,2012-10-16 07:15:00
1:35 AM,59.0,35.6,42,29.83,10.0,WSW,16.1,28.8,N/A,,Clear,250,2012-10-16 07:35:00
1:55 AM,59.0,33.8,39,29.82,10.0,WSW,15.0,27.6,N/A,,Clear,250,2012-10-16 07:55:00
2:35 AM,59.0,33.8,39,29.79,10.0,WSW,13.8,24.2,N/A,,Clear,250,2012-10-16 08:35:00
2:55 AM,60.8,33.8,36,29.80,10.0,WSW,17.3,28.8,N/A,,Clear,250,2012-10-16 08:55:00
3:15 AM,59.0,33.8,39,29.79,10.0,WSW,11.5,24.2,N/A,,Clear,240,2012-10-16 09:15:00
3:35 AM,59.0,33.8,39,29.77,10.0,WSW,11.5,23.0,N/A,,Clear,240,2012-10-16 09:35:00
3:55 AM,59.0,32.0,36,29.76,10.0,WSW,13.8,18.4,N/A,,Clear,240,2012-10-16 09:55:00
4:15 AM,59.0,32.0,36,29.76,10.0,WSW,15.0,24.2,N/A,,Clear,250,2012-10-16 10:15:00
4:35 AM,59.0,32.0,36,29.74,10.0,WSW,15.0,24.2,N/A,,Clear,250,2012-10-16 10:35:00
4:55 AM,59.0,33.8,39,29.74,10.0,WSW,9.2,20.7,N/A,,Clear,240,2012-10-16 10:55:00
5:15 AM,59.0,32.0,36,29.73,10.0,SW,13.8,20.7,N/A,,Clear,230,2012-10-16 11:15:00
5:35 AM,59.0,33.8,39,29.72,10.0,SW,15.0,18.4,N/A,,Clear,230,2012-10-16 11:35:00
6:15 AM,59.0,33.8,39,29.70,10.0,WSW,15.0,24.2,N/A,,Mostly Cloudy,240,2012-10-16 12:15:00
6:35 AM,59.0,35.6,42,29.68,10.0,WSW,20.7,29.9,N/A,,Partly Cloudy,240,2012-10-16 12:35:00
6:55 AM,60.8,35.6,39,29.68,10.0,WSW,16.1,23.0,N/A,,Mostly Cloudy,250,2012-10-16 12:55:00
7:15 AM,60.8,35.6,39,29.66,10.0,WSW,12.7,24.2,N/A,,Partly Cloudy,240,2012-10-16 13:15:00
7:35 AM,59.0,37.4,45,29.66,10.0,WSW,12.7,20.7,N/A,,Scattered Clouds,240,2012-10-16 13:35:00
7:55 AM,59.0,37.4,45,29.66,10.0,SSW,17.3,24.2,N/A,,Overcast,200,2012-10-16 13:55:00
8:15 AM,59.0,37.4,45,29.64,10.0,SE,5.8,19.6,N/A,,Overcast,130,2012-10-16 14:15:00
8:35 AM,57.2,37.4,48,29.63,10.0,South,12.7,-,N/A,,Overcast,180,2012-10-16 14:35:00
8:55 AM,57.2,37.4,48,29.61,10.0,WSW,11.5,18.4,N/A,,Scattered Clouds,240,2012-10-16 14:55:00
9:15 AM,59.0,37.4,45,29.60,10.0,West,12.7,23.0,N/A,,Mostly Cloudy,260,2012-10-16 15:15:00
9:35 AM,60.8,37.4,42,29.59,10.0,WSW,13.8,24.2,N/A,,Mostly Cloudy,240,2012-10-16 15:35:00
9:55 AM,60.8,37.4,42,29.59,10.0,WSW,10.4,23.0,N/A,,Partly Cloudy,250,2012-10-16 15:55:00
10:35 AM,60.8,37.4,42,29.56,10.0,East,5.8,-,N/A,,Overcast,100,2012-10-16 16:35:00
10:55 AM,62.6,37.4,39,29.58,10.0,WSW,3.5,-,N/A,,Overcast,250,2012-10-16 16:55:00
11:15 AM,60.8,41.0,48,29.57,10.0,West,10.4,-,N/A,,Overcast,260,2012-10-16 17:15:00
11:36 AM,62.6,39.2,42,29.53,10.0,SW,12.7,19.6,N/A,,Partly Cloudy,230,2012-10-16 17:36:00
11:55 AM,62.6,39.2,42,29.51,10.0,WSW,13.8,25.3,N/A,,Clear,240,2012-10-16 17:55:00
12:15 PM,62.6,39.2,42,29.50,10.0,WSW,13.8,20.7,N/A,,Clear,240,2012-10-16 18:15:00
12:35 PM,64.4,39.2,40,29.50,10.0,WSW,9.2,19.6,N/A,,Clear,240,2012-10-16 18:35:00
12:55 PM,66.2,39.2,37,29.48,10.0,WSW,6.9,-,N/A,,Clear,250,2012-10-16 18:55:00
1:15 PM,66.2,39.2,37,29.48,10.0,WNW,18.4,27.6,N/A,,Scattered Clouds,300,2012-10-16 19:15:00
1:35 PM,66.2,37.4,35,29.47,10.0,West,12.7,28.8,N/A,,Mostly Cloudy,260,2012-10-16 19:35:00
1:55 PM,64.4,37.4,37,29.50,10.0,West,24.2,28.8,N/A,,Overcast,280,2012-10-16 19:55:00
2:15 PM,60.8,41.0,48,29.48,10.0,North,10.4,-,N/A,,Overcast,10,2012-10-16 20:15:00
2:35 PM,55.4,44.6,67,29.49,9.0,WSW,16.1,31.1,N/A,,Overcast,240,2012-10-16 20:35:00
2:55 PM,50.0,42.8,76,29.55,10.0,NNW,31.1,41.4,0.05,,Overcast,330,2012-10-16 20:55:00
3:15 PM,48.2,42.8,82,29.57,10.0,West,8.1,19.6,0.07,,Overcast,270,2012-10-16 21:15:00
3:55 PM,51.8,42.8,71,29.49,10.0,NNW,9.2,-,0.08,,Mostly Cloudy,340,2012-10-16 21:55:00
4:15 PM,53.6,42.8,67,29.47,10.0,West,15.0,28.8,N/A,,Partly Cloudy,270,2012-10-16 22:15:00
4:55 PM,48.2,33.8,58,29.56,10.0,NW,27.6,48.3,N/A,,Mostly Cloudy,310,2012-10-16 22:55:00
5:35 PM,51.8,32.0,47,29.55,10.0,West,6.9,-,N/A,,Partly Cloudy,280,2012-10-16 23:35:00
5:55 PM,51.8,35.6,54,29.54,10.0,WSW,15.0,26.5,N/A,,Clear,240,2012-10-16 23:55:00
6:15 PM,50.0,35.6,58,29.53,10.0,West,13.8,20.7,N/A,,Clear,260,2012-10-17 00:15:00
6:35 PM,51.8,30.2,44,29.57,10.0,West,17.3,25.3,N/A,,Clear,280,2012-10-17 00:35:00
6:55 PM,51.8,28.4,41,29.58,10.0,NW,8.1,-,N/A,,Clear,320,2012-10-17 00:55:00
7:15 PM,51.8,24.8,35,29.60,10.0,NW,9.2,17.3,N/A,,Clear,320,2012-10-17 01:15:00
7:35 PM,48.2,26.6,43,29.62,10.0,NW,8.1,-,N/A,,Clear,310,2012-10-17 01:35:00
7:55 PM,48.2,26.6,43,29.63,10.0,WNW,18.4,27.6,N/A,,Clear,300,2012-10-17 01:55:00
8:15 PM,48.2,24.8,40,29.64,10.0,WNW,15.0,25.3,N/A,,Clear,300,2012-10-17 02:15:00
8:55 PM,48.2,19.4,32,29.68,10.0,WNW,12.7,26.5,N/A,,Partly Cloudy,300,2012-10-17 02:55:00
9:15 PM,48.2,21.2,34,29.70,10.0,NW,17.3,26.5,N/A,,Mostly Cloudy,310,2012-10-17 03:15:00
9:35 PM,46.4,21.2,37,29.70,10.0,NW,11.5,16.1,N/A,,Overcast,310,2012-10-17 03:35:00
9:55 PM,46.4,17.6,32,29.70,10.0,NW,16.1,29.9,N/A,,Mostly Cloudy,310,2012-10-17 03:55:00
10:15 PM,46.4,14.0,27,29.72,10.0,WNW,10.4,21.9,N/A,,Clear,300,2012-10-17 04:15:00
10:35 PM,46.4,12.2,25,29.73,10.0,WNW,6.9,16.1,N/A,,Clear,290,2012-10-17 04:35:00
10:55 PM,46.4,8.6,22,29.73,10.0,West,10.4,26.5,N/A,,Clear,270,2012-10-17 04:55:00
11:15 PM,46.4,8.6,22,29.74,10.0,WNW,13.8,24.2,N/A,,Clear,290,2012-10-17 05:15:00
11:35 PM,44.6,8.6,23,29.76,10.0,West,18.4,24.2,N/A,,Clear,280,2012-10-17 05:35:00
11:55 PM,44.6,10.4,25,29.78,10.0,West,11.5,20.7,N/A,,Clear,280,2012-10-17 05:55:00